Arcata, CA

5:52 PM PDT on September 22, 2017 (GMT -0700)
Arcata

Weather History for KACV - July, 2013

Change the Weather History Date:

Wednesday, July 3, 2013

  Actual Average Record
Temperature  
Mean Temperature 59 °F -  
Max Temperature 63 °F 61 °F 69 °F (1996)
Min Temperature 55 °F 47 °F 44 °F (2010)
Degree Days  
Heating Degree Days 6    
Growing Degree Days 9 (Base 50)    
Moisture  
Dew Point 55 °F    
Average Humidity 91    
Maximum Humidity 100    
Minimum Humidity 78    
Precipitation  
Precipitation 0.00 in - - ()
Sea Level Pressure  
Sea Level Pressure 30.00 in    
Wind  
Wind Speed 2 mph (WNW)    
Max Wind Speed 9 mph    
Max Gust Speed -    
Visibility 5 miles    
Events Fog    
Averages and records for this station are not official NWS values.
T = Trace of Precipitation, MM = Missing Value Source: NWS Daily Summary

Daily Weather History Graph

Daily Weather History Graph

Search for Another Location

Airport or City:

Trip Planner

Search our weather history database for the weather conditions in past years. The results will help you decide how hot, cold, wet, or windy it might be!

Date:

Astronomy

Jul. 03, 2013 Rise Set
Actual Time 5:49 AM PDT 8:51 PM PDT
Civil Twilight 5:16 AM PDT 9:25 PM PDT
Nautical Twilight 4:33 AM PDT 10:07 PM PDT
Astronomical Twilight 3:43 AM PDT 10:57 PM PDT
Moon 2:31 AM PDT (7/3) 5:07 PM PDT (7/3)
Length of Visible Light 16h 09m
Length of Day
15h 02m
Waning Crescent, 17% of the Moon is Illuminated
Jul 3
Waning Crescent
Jul 8
New
Jul 15
First Quarter
Jul 22
Full
Jul 29
Last Quarter

Hourly Weather History & Observations

Time (PDT) Temp. Dew Point Humidity Pressure Visibility Wind Dir Wind Speed Gust Speed Precip Events Conditions
12:40 AM 57.2 °F 55.4 °F 94% 30.01 in 2.5 mi WNW 4.6 mph - N/A   Overcast
12:53 AM 55.9 °F 55.0 °F 97% 30.03 in 2.0 mi Calm Calm - N/A   Overcast
1:02 AM 55.4 °F 55.4 °F 100% 30.01 in 1.5 mi Calm Calm - N/A   Overcast
1:53 AM 55.9 °F 55.0 °F 97% 30.01 in 1.5 mi Calm Calm - N/A   Overcast
2:14 AM 57.2 °F 55.4 °F 94% 29.98 in 2.5 mi Calm Calm - N/A   Overcast
2:23 AM 57.2 °F 55.4 °F 94% 29.99 in 4.0 mi SSE 5.8 mph - N/A   Overcast
2:53 AM 57.0 °F 55.9 °F 96% 29.99 in 4.0 mi South 4.6 mph - N/A   Overcast
3:53 AM 55.9 °F 55.0 °F 97% 29.99 in 5.0 mi SSE 3.5 mph - N/A   Overcast
4:40 AM 55.4 °F 53.6 °F 94% 29.97 in 2.5 mi Calm Calm - N/A   Overcast
4:53 AM 55.9 °F 54.0 °F 93% 29.99 in 2.0 mi Calm Calm - N/A   Overcast
5:08 AM 55.4 °F 55.4 °F 100% 29.97 in 4.0 mi Calm Calm - N/A   Overcast
5:53 AM 55.9 °F 54.0 °F 93% 29.99 in 2.5 mi Calm Calm - N/A   Overcast
6:14 AM 55.4 °F 55.4 °F 100% 29.98 in 1.5 mi Calm Calm - N/A   Overcast
6:53 AM 55.0 °F 54.0 °F 96% 30.00 in 1.2 mi NNW 3.5 mph - N/A   Overcast
7:03 AM 55.4 °F 55.4 °F 100% 29.99 in 0.5 mi North 3.5 mph - N/A Fog Fog
7:24 AM 55.4 °F 55.4 °F 100% 29.99 in 0.2 mi Calm Calm - N/A Fog Fog
7:53 AM 55.0 °F 55.0 °F 100% 30.02 in 0.2 mi Calm Calm - N/A Fog Fog
8:18 AM 55.4 °F 55.4 °F 100% 30.01 in 0.5 mi Calm Calm - N/A Fog Fog
8:28 AM 55.4 °F 55.4 °F 100% 30.00 in 0.2 mi Calm Calm - N/A Fog Fog
8:35 AM 55.4 °F 55.4 °F 100% 30.00 in 0.2 mi Calm Calm - N/A Fog Fog
8:46 AM 55.4 °F 55.4 °F 100% 30.00 in 0.8 mi Calm Calm - N/A   Mist
8:53 AM 55.9 °F 55.0 °F 97% 30.01 in 1.2 mi Calm Calm - N/A   Overcast
9:14 AM 55.4 °F 55.4 °F 100% 30.00 in 3.0 mi Calm Calm - N/A   Overcast
9:34 AM 55.4 °F 55.4 °F 100% 30.00 in 1.8 mi WSW 5.8 mph - N/A   Overcast
9:53 AM 55.9 °F 55.0 °F 97% 30.01 in 3.0 mi Calm Calm - N/A   Overcast
10:53 AM 60.1 °F 55.9 °F 86% 30.01 in 10.0 mi WSW 5.8 mph - N/A   Overcast
11:09 AM 60.8 °F 55.4 °F 82% 30.00 in 8.0 mi West 6.9 mph - N/A   Overcast
11:33 AM 60.8 °F 55.4 °F 82% 30.00 in 9.0 mi West 4.6 mph - N/A   Scattered Clouds
11:53 AM 62.1 °F 55.9 °F 80% 30.01 in 10.0 mi WNW 5.8 mph - N/A   Clear
12:53 PM 61.0 °F 55.9 °F 83% 30.01 in 10.0 mi NW 6.9 mph - N/A   Clear
1:13 PM 59.0 °F 55.4 °F 88% 30.00 in 10.0 mi WNW 5.8 mph - N/A   Partly Cloudy
1:28 PM 60.8 °F 55.4 °F 82% 30.01 in 8.0 mi NW 5.8 mph - N/A   Mostly Cloudy
1:53 PM 61.0 °F 55.0 °F 81% 30.02 in 10.0 mi NNW 4.6 mph - N/A   Partly Cloudy
2:53 PM 60.1 °F 54.0 °F 80% 30.03 in 8.0 mi NW 5.8 mph - N/A   Clear
3:53 PM 63.0 °F 55.9 °F 78% 30.00 in 8.0 mi NW 4.6 mph - N/A   Clear
4:53 PM 62.1 °F 55.0 °F 78% 29.99 in 9.0 mi Calm Calm - N/A   Clear
5:53 PM 61.0 °F 54.0 °F 78% 30.00 in 8.0 mi NNE 4.6 mph - N/A   Clear
6:53 PM 60.1 °F 54.0 °F 80% 30.00 in 7.0 mi NW 9.2 mph - N/A   Clear
7:53 PM 57.0 °F 53.1 °F 87% 29.99 in 5.0 mi NNW 5.8 mph - N/A   Partly Cloudy
8:25 PM 57.2 °F 53.6 °F 88% 29.98 in 5.0 mi Calm Calm - N/A   Mostly Cloudy
8:34 PM 57.2 °F 51.8 °F 82% 29.98 in 6.0 mi Calm Calm - N/A   Haze
8:53 PM 57.9 °F 53.1 °F 84% 29.99 in 5.0 mi Calm Calm - N/A   Haze
9:37 PM 55.4 °F 51.8 °F 88% 29.98 in 6.0 mi SSE 3.5 mph - N/A   Mostly Cloudy
9:45 PM 55.4 °F 53.6 °F 94% 29.98 in 7.0 mi Calm Calm - N/A   Scattered Clouds
9:53 PM 55.9 °F 53.1 °F 90% 30.00 in 8.0 mi Calm Calm - N/A   Partly Cloudy
10:53 PM 55.0 °F 52.0 °F 89% 29.99 in 8.0 mi Calm Calm - N/A   Clear
11:53 PM 55.0 °F 52.0 °F 89% 29.99 in 8.0 mi SE 3.5 mph - N/A   Clear